| time (UTC) | temp F | wind direction | speed MPH | gust MPH | rain 1hr in | rain 24hr in | rain mn in | humidity % | barometer mb |
| 20260505230050 | 52 | 22 | 0.0 | 0.0 | 0.02 | 0.10 | 0.02 | 95 | 1006.6 |
| 20260505224548 | 52 | 22 | 0.0 | 0.0 | 0.02 | 0.09 | 0.02 | 95 | 1006.6 |
| 20260505223049 | 52 | 26 | 0.0 | 0.0 | 0.02 | 0.09 | 0.01 | 95 | 1006.7 |
| 20260505221547 | 52 | 25 | 0.0 | 0.0 | 0.02 | 0.09 | 0.01 | 95 | 1006.7 |
| 20260505220059 | 52 | 28 | 0.0 | 0.0 | 0.02 | 0.08 | 0.08 | 95 | 1006.8 |
| 20260505214545 | 52 | 28 | 0.0 | 0.0 | 0.02 | 0.08 | 0.08 | 95 | 1007.0 |
| 20260505213044 | 52 | 28 | 0.0 | 0.0 | 0.01 | 0.07 | 0.07 | 94 | 1007.0 |
| 20260505211549 | 52 | 36 | 0.0 | 0.0 | 0.01 | 0.07 | 0.07 | 94 | 1007.1 |
| 20260505210043 | 52 | 25 | 0.0 | 0.0 | 0.00 | 0.06 | 0.06 | 94 | 1007.2 |
| 20260505205041 | 52 | 20 | 0.0 | 0.0 | 0.00 | 0.31 | 0.06 | 94 | 1007.2 |
| 20260505204656 | 52 | 20 | 0.0 | 0.0 | 0.00 | 0.06 | 0.06 | 94 | 1007.1 |
| 20260505204553 | 52 | 21 | 0.0 | 0.0 | 0.00 | 0.31 | 0.06 | 94 | 1007.2 |
| 20260505204118 | 52 | 19 | 0.0 | 0.0 | 0.00 | 0.31 | 0.06 | 94 | 1007.3 |
| 20260505203548 | 52 | 17 | 0.0 | 0.0 | 0.00 | 0.31 | 0.06 | 94 | 1007.3 |
| 20260505203155 | 52 | 17 | 0.0 | 0.0 | 0.00 | 0.06 | 0.06 | 94 | 1007.2 |
| 20260505203053 | 52 | 17 | 0.0 | 0.0 | 0.00 | 0.31 | 0.06 | 94 | 1007.2 |
| 20260505202544 | 52 | 17 | 0.0 | 0.0 | 0.00 | 0.31 | 0.06 | 94 | 1007.2 |
| 20260505202051 | 52 | 18 | 0.0 | 0.0 | 0.00 | 0.31 | 0.06 | 94 | 1007.1 |
| 20260505201643 | 52 | 17 | 0.0 | 0.0 | 0.00 | 0.06 | 0.06 | 94 | 1007.1 |
| 20260505201542 | 52 | 17 | 0.0 | 0.0 | 0.00 | 0.31 | 0.06 | 94 | 1007.1 |
| 20260505201050 | 52 | 21 | 0.0 | 0.0 | 0.00 | 0.31 | 0.06 | 94 | 1007.1 |
| 20260505200103 | 52 | 17 | 0.0 | 0.0 | 0.00 | 0.06 | 0.06 | 94 | 1007.1 |
| 20260505194557 | 52 | 17 | 0.0 | 0.0 | 0.00 | 0.06 | 0.06 | 94 | 1007.0 |
| 20260505193059 | 52 | 16 | 0.0 | 0.0 | 0.00 | 0.06 | 0.06 | 93 | 1007.1 |
| 20260505191600 | 52 | 22 | 0.0 | 0.0 | 0.00 | 0.06 | 0.06 | 93 | 1007.1 |
| 20260505190056 | 52 | 21 | 0.0 | 0.0 | 0.00 | 0.06 | 0.06 | 93 | 1007.0 |
| 20260505184601 | 52 | 21 | 0.0 | 0.0 | 0.00 | 0.06 | 0.06 | 93 | 1006.9 |
| 20260505183053 | 52 | 20 | 0.0 | 0.0 | 0.00 | 0.06 | 0.06 | 93 | 1006.9 |
| 20260505182051 | 53 | 22 | 0.0 | 0.0 | 0.00 | 0.31 | 0.06 | 93 | 1006.9 |
| 20260505181648 | 52 | 22 | 0.0 | 0.0 | 0.00 | 0.06 | 0.06 | 93 | 1006.8 |
| 20260505181544 | 53 | 22 | 0.0 | 0.0 | 0.00 | 0.31 | 0.06 | 93 | 1006.9 |
| 20260505181051 | 53 | 20 | 0.0 | 0.0 | 0.00 | 0.31 | 0.06 | 93 | 1007.0 |
| 20260505180544 | 53 | 12 | 0.0 | 0.0 | 0.00 | 0.31 | 0.06 | 93 | 1007.0 |
| 20260505180151 | 52 | 26 | 0.0 | 0.0 | 0.00 | 0.06 | 0.06 | 93 | 1007.0 |
| 20260505180049 | 53 | 22 | 0.0 | 0.0 | 0.00 | 0.31 | 0.06 | 93 | 1007.0 |
| 20260505175541 | 53 | 25 | 0.0 | 0.0 | 0.00 | 0.31 | 0.06 | 93 | 1007.1 |
| 20260505175050 | 53 | 24 | 0.0 | 0.0 | 0.00 | 0.31 | 0.06 | 93 | 1007.1 |
| 20260505174642 | 52 | 24 | 0.0 | 0.0 | 0.00 | 0.06 | 0.06 | 93 | 1007.1 |
| 20260505174541 | 53 | 24 | 0.0 | 0.0 | 0.00 | 0.31 | 0.06 | 93 | 1007.1 |
| 20260505174050 | 53 | 24 | 0.0 | 0.0 | 0.00 | 0.31 | 0.06 | 93 | 1007.1 |
| 20260505173623 | 53 | 20 | 0.0 | 0.0 | 0.00 | 0.31 | 0.06 | 93 | 1007.1 |
| 20260505173108 | 53 | 19 | 0.0 | 0.0 | 0.00 | 0.31 | 0.06 | 93 | 1007.2 |
| 20260505172558 | 53 | 19 | 0.0 | 0.0 | 0.00 | 0.31 | 0.06 | 93 | 1007.2 |
| 20260505172105 | 53 | 19 | 0.0 | 0.0 | 0.00 | 0.31 | 0.06 | 93 | 1007.1 |
| 20260505171616 | 53 | 21 | 0.0 | 0.0 | 0.00 | 0.31 | 0.06 | 93 | 1007.1 |
| 20260505171504 | 53 | 21 | 0.0 | 0.0 | 0.00 | 0.06 | 0.06 | 93 | 1007.0 |
| 20260505171103 | 53 | 21 | 0.0 | 0.0 | 0.00 | 0.31 | 0.06 | 93 | 1007.1 |
| 20260505170553 | 53 | 17 | 0.0 | 0.0 | 0.00 | 0.31 | 0.06 | 93 | 1007.1 |
| 20260505170057 | 53 | 17 | 0.0 | 0.0 | 0.00 | 0.43 | 0.06 | 93 | 1007.1 |
| 20260505165549 | 54 | 17 | 0.0 | 0.0 | 0.00 | 0.43 | 0.06 | 93 | 1007.1 |
| 20260505165056 | 54 | 17 | 0.0 | 0.0 | 0.00 | 0.43 | 0.06 | 92 | 1007.1 |
| 20260505164650 | 53 | 17 | 0.0 | 0.0 | 0.00 | 0.09 | 0.06 | 92 | 1007.0 |
| 20260505164549 | 54 | 24 | 0.0 | 0.0 | 0.00 | 0.43 | 0.06 | 92 | 1007.1 |
| 20260505164117 | 54 | 34 | 0.0 | 0.0 | 0.00 | 0.43 | 0.06 | 92 | 1007.1 |
| 20260505163548 | 54 | 29 | 0.0 | 0.0 | 0.00 | 0.43 | 0.06 | 92 | 1007.2 |
| 20260505163156 | 53 | 21 | 0.0 | 0.0 | 0.00 | 0.09 | 0.06 | 93 | 1007.1 |
| 20260505163055 | 54 | 30 | 0.0 | 0.0 | 0.00 | 0.43 | 0.06 | 93 | 1007.1 |
| 20260505162547 | 54 | 22 | 0.0 | 0.0 | 0.00 | 0.43 | 0.06 | 93 | 1007.1 |
| 20260505162110 | 54 | 22 | 0.0 | 0.0 | 0.00 | 0.43 | 0.06 | 92 | 1007.0 |
| 20260505161600 | 54 | 28 | 0.0 | 0.0 | 0.00 | 0.43 | 0.06 | 92 | 1007.1 |
| 20260505161511 | 53 | 30 | 0.0 | 0.0 | 0.00 | 0.09 | 0.06 | 92 | 1007.0 |
| 20260505161109 | 54 | 32 | 0.0 | 0.0 | 0.00 | 0.43 | 0.06 | 92 | 1007.1 |
| 20260505160600 | 54 | 28 | 0.0 | 0.0 | 0.00 | 0.43 | 0.06 | 92 | 1007.1 |
| 20260505160150 | 54 | 48 | 0.0 | 0.0 | 0.00 | 0.31 | 0.06 | 92 | 1007.1 |
| 20260505153051 | 55 | 22 | 0.0 | 0.0 | 0.00 | 1.57 | 0.06 | 93 | 1007.4 |
| 20260505153006 | 54 | 22 | 0.0 | 0.0 | 0.00 | 0.31 | 0.06 | 93 | 1007.3 |
| 20260505152605 | 55 | 53 | 0.0 | 0.0 | 0.00 | 1.57 | 0.06 | 93 | 1007.5 |
| 20260505152049 | 54 | 136 | 0.0 | 0.0 | 0.00 | 1.57 | 0.06 | 93 | 1007.5 |
| 20260505151642 | 54 | 29 | 0.0 | 0.0 | 0.00 | 0.31 | 0.06 | 93 | 1007.5 |
| 20260505151541 | 55 | 23 | 0.0 | 0.0 | 0.00 | 1.57 | 0.06 | 93 | 1007.5 |
| 20260505151050 | 55 | 32 | 0.0 | 0.0 | 0.00 | 1.57 | 0.06 | 93 | 1007.7 |
| 20260505150542 | 55 | 31 | 0.0 | 0.0 | 0.00 | 1.57 | 0.06 | 92 | 1007.7 |
| 20260505140559 | 56 | 22 | 0.0 | 0.0 | 0.00 | 1.69 | 0.06 | 93 | 1007.6 |
| 20260505140106 | 56 | 29 | 0.0 | 0.0 | 0.00 | 1.69 | 0.06 | 93 | 1007.7 |
| 20260505124514 | 56 | 24 | 0.0 | 0.0 | 0.00 | 0.34 | 0.06 | 94 | 1008.2 |
| 20260505123009 | 56 | 36 | 0.0 | 0.0 | 0.00 | 0.34 | 0.06 | 94 | 1008.2 |
| 20260505121509 | 56 | 5 | 0.0 | 0.0 | 0.00 | 0.34 | 0.06 | 94 | 1008.4 |
| 20260505120006 | 56 | 25 | 0.0 | 0.0 | 0.00 | 0.34 | 0.06 | 95 | 1008.4 |
| 20260505114506 | 56 | 26 | 0.0 | 0.0 | 0.00 | 0.34 | 0.06 | 95 | 1008.6 |
| 20260505113005 | 56 | 29 | 0.0 | 0.0 | 0.00 | 0.34 | 0.06 | 95 | 1008.5 |
| 20260505111506 | 56 | 35 | 0.0 | 0.0 | 0.00 | 0.34 | 0.06 | 95 | 1008.5 |
| 20260505101503 | 58 | 17 | 0.0 | 0.0 | 0.00 | 0.34 | 0.06 | 96 | 1008.6 |
| 20260505100001 | 57 | 38 | 0.0 | 0.0 | 0.00 | 0.34 | 0.06 | 96 | 1008.7 |
| 20260505094601 | 57 | 21 | 0.0 | 0.0 | 0.00 | 0.34 | 0.06 | 96 | 1008.8 |
| 20260505093059 | 58 | 22 | 0.0 | 0.0 | 0.00 | 0.34 | 0.06 | 96 | 1008.8 |
| 20260505091559 | 58 | 17 | 0.0 | 0.0 | 0.00 | 0.34 | 0.06 | 96 | 1008.8 |
| 20260505090100 | 59 | 36 | 0.0 | 0.0 | 0.00 | 0.34 | 0.06 | 96 | 1008.9 |
| 20260505084557 | 59 | 61 | 0.0 | 0.0 | 0.00 | 0.34 | 0.06 | 96 | 1008.8 |
| 20260505083108 | 59 | 90 | 0.0 | 0.0 | 0.00 | 0.34 | 0.06 | 97 | 1008.7 |
| 20260505081558 | 58 | 97 | 0.0 | 0.0 | 0.00 | 0.34 | 0.06 | 96 | 1008.8 |
| 20260505080055 | 59 | 97 | 0.0 | 0.0 | 0.00 | 0.34 | 0.06 | 96 | 1008.8 |
| 20260505074554 | 58 | 97 | 0.0 | 0.0 | 0.00 | 0.34 | 0.06 | 96 | 1008.8 |
| 20260505073055 | 58 | 97 | 0.0 | 0.0 | 0.00 | 0.34 | 0.06 | 96 | 1008.8 |
| 20260505071550 | 58 | 97 | 0.0 | 0.0 | 0.00 | 0.34 | 0.06 | 96 | 1008.8 |
| 20260505070052 | 57 | 97 | 0.0 | 0.0 | 0.00 | 0.34 | 0.06 | 96 | 1009.0 |
| 20260505064559 | 57 | 97 | 0.0 | 0.0 | 0.00 | 0.34 | 0.06 | 96 | 1009.0 |
| 20260505063052 | 57 | 97 | 0.0 | 0.0 | 0.00 | 0.34 | 0.06 | 96 | 1009.0 |
| 20260505061548 | 57 | 97 | 0.0 | 0.0 | 0.00 | 0.34 | 0.06 | 96 | 1009.1 |
| 20260505060046 | 56 | 97 | 0.0 | 0.0 | 0.00 | 0.34 | 0.06 | 96 | 1009.1 |
| 20260505054556 | 56 | 97 | 0.0 | 0.0 | 0.00 | 0.34 | 0.06 | 96 | 1009.0 |
| 20260505053051 | 56 | 97 | 0.0 | 0.0 | 0.01 | 0.34 | 0.06 | 96 | 1009.1 |
| 20260505051545 | 56 | 97 | 0.0 | 0.0 | 0.01 | 0.34 | 0.06 | 96 | 1009.0 |
| 20260505041600 | 56 | 97 | 0.0 | 0.0 | 0.03 | 0.33 | 0.06 | 96 | 1009.0 |
| 20260505040041 | 56 | 97 | 0.0 | 0.0 | 0.03 | 0.33 | 0.06 | 95 | 1009.1 |
| 20260505034544 | 56 | 97 | 0.0 | 0.0 | 0.02 | 0.32 | 0.05 | 95 | 1009.2 |
| 20260505033039 | 56 | 97 | 0.0 | 0.0 | 0.02 | 0.31 | 0.04 | 95 | 1009.2 |
| 20260505031537 | 56 | 102 | 0.0 | 0.0 | 0.00 | 0.30 | 0.02 | 95 | 1009.4 |
| 20260505030036 | 55 | 102 | 0.0 | 0.0 | 0.00 | 0.30 | 0.02 | 95 | 1009.6 |
| 20260505024543 | 56 | 102 | 0.0 | 0.0 | 0.00 | 0.30 | 0.02 | 95 | 1009.6 |
| 20260505023040 | 56 | 102 | 0.0 | 0.0 | 0.00 | 0.30 | 0.02 | 95 | 1009.6 |
| 20260505021538 | 56 | 102 | 0.0 | 0.0 | 0.00 | 0.30 | 0.02 | 95 | 1009.6 |
| 20260505020032 | 56 | 102 | 0.0 | 0.0 | 0.02 | 0.30 | 0.02 | 95 | 1009.7 |
| 20260505014536 | 56 | 102 | 0.0 | 0.0 | 0.02 | 0.30 | 0.02 | 95 | 1009.7 |
| 20260505013030 | 56 | 102 | 0.0 | 0.0 | 0.02 | 0.30 | 0.02 | 95 | 1009.7 |
| 20260505011526 | 57 | 102 | 0.0 | 0.0 | 0.02 | 0.30 | 0.02 | 95 | 1009.8 |
| 20260505010025 | 57 | 102 | 0.0 | 0.0 | 0.01 | 0.28 | 0.01 | 95 | 1009.9 |
| 20260505004524 | 57 | 102 | 0.0 | 0.0 | 0.01 | 0.28 | 0.01 | 95 | 1010.0 |
| 20260505003021 | 57 | 102 | 0.0 | 0.0 | 0.00 | 0.28 | 0.00 | 95 | 1010.2 |
| 20260505001520 | 57 | 102 | 0.0 | 0.0 | 0.00 | 0.28 | 0.00 | 95 | 1010.3 |
| 20260505000029 | 57 | 102 | 0.0 | 0.0 | 0.00 | 0.28 | 0.00 | 95 | 1010.4 |
| 20260504234517 | 57 | 102 | 0.0 | 0.0 | 0.00 | 0.28 | 0.00 | 95 | 1010.5 |
| 20260504233021 | 57 | 102 | 0.0 | 0.0 | 0.00 | 0.28 | 0.00 | 95 | 1010.5 |
| 20260504231525 | 57 | 102 | 0.0 | 0.0 | 0.00 | 0.28 | 0.00 | 95 | 1010.6 |